Other Surface Observations
Issued by NWS

Home | Current Version | Previous Version | Text Only | Print | Product List | Glossary On
Versions: 1 2 3 4 5 6 7 8 9 10 11 12 13 14 15 16 17 18 19 20 21 22 23 24 25 26 27 28 29 30 31 32 33 34 35 36 37 38 39 40 41 42 43 44 45 46 47 48 49 50
000
SXUS52 KTAE 222316
OSOTAE
OSOTAE
North Florida/South Alabama/Southwest Georgia Weather Roundup
National Weather Service Tallahassee Florida
700 PM EDT WED MAY 22 2019

Note: "fair" indicates few or no clouds below 12,000 feet with no
significant weather and/or obstructions to visibility.

!FLZ017-115-028-034-025-230000
...North Florida...

CITY           SKY/WX    TMP DP  RH WIND       PRES   REMARKS
TALL INTL ARPT PTSUNNY   91  67  44 S8        30.05S HX  94
FSU LOVE BLDG  NOT AVBL
APALACHICOLA   FAIR      85  70  60 S6        30.06S
PERRY          PTSUNNY   83  77  80 SW3       30.07S HX  92
CROSS CITY     FAIR      84  75  74 W8        30.06R HX  92
JACKSONVILLE   FAIR      83  65  54 E14       30.12R
$$

!FLZ112-006-005-002-011-230000
...Florida Panhandle...

CITY           SKY/WX    TMP DP  RH WIND       PRES   REMARKS
MARIANNA       PTSUNNY   91  65  41 SE3       30.04R HX  93
BONIFAY        NOT AVBL
PANAMA CITY NW CLOUDY    86  68  54 S9        30.05S
TYNDALL AFB    FAIR      84  73  69 SW8       30.06R HX  90
TYND DRONE APT FAIR      82  75  78 SW6       30.06S
DE FUNIAK SPR  FAIR      88  61  39 S5        30.07S
EGLIN AFB      FAIR      84  68  58 S7        30.07R
DESTIN         FAIR      85  69  58 CALM      30.07R
HURLBURT       FAIR      83  71  65 CALM      30.06S
CRESTVIEW      FAIR      90  58  33 S3        30.08R
PENSACOLA      FAIR      84  72  67 SE12      30.06F
$$

!ALZ063-066-230000
...South Alabama...

CITY           SKY/WX    TMP DP  RH WIND       PRES   REMARKS
DOTHAN         FAIR      93  57  29 E7        30.09S HX  91
OZARK CAIRNS   FAIR      92  62  36 S3        30.05F HX  92
FT RUCKER HELI FAIR      91  61  37 CALM      30.06S HX  91
RUCKER HELI 3  FAIR      91  60  35 S5        30.06S HX  90
RUCKER HELI 2  FAIR      91  62  38 CALM      30.04F HX  91
FLORALA APT    FAIR      90  55  30 VRB6      30.08S
ANDALUSIA      FAIR      94  57  28 VRB5      30.06S HX  92
TROY           FAIR      89  62  40 S3        30.08S
EUFALA         NOT AVBL
MOBILE         FAIR      85  72  65 SE12      30.07R HX  91
$$

!GAZ120>161-230000
...Southwest and South Central Georgia...

CITY           SKY/WX    TMP DP  RH WIND       PRES   REMARKS
THOMASVILLE    FAIR      91  64  40 E6        30.07S HX  93
BAINBRIDGE       N/A     95  57  28 MISG      30.05S HX  94
MOODY AFB      FAIR      92  64  39 E8        30.07S HX  94
VALDOSTA       FAIR      92  64  39 SE5       30.06S HX  93
MOULTRIE       FAIR      91  63  38 E3        30.07S HX  92
BLAKELY        FAIR      90  59  35 CALM      30.06S
ALBANY         SUNNY     93  63  36 SE5       30.07S HX  94
TIFTON         PTSUNNY   92  59  33 E7        30.07  HX  91
FITZGERALD     FAIR      93  67  41 SE3       30.10S HX  96
CORDELE        CLOUDY    92  61  34 CALM      30.08S HX  92
AMERICUS       FAIR      93  59  31 SW3       30.09S HX  92
HOMERVILLE     FAIR      90  63  40 SE9G18    30.08S HX  90
$$

!GMZ750-755-770-775-230000
...Coastal and Buoy Obs...

STATION/POSITION TIME  TEMP    WIND        PRES    VSBY  WAVE
                       AIR SEA DIR/SP/G                  HT/PER
                 (UTC) (F)     (DEG/KT/KT) (MB)    (MI)  (FT/S)
KEATON BEACH     2300   82     310/  3/  3 1017.8F
CEDAR KEY        2300   84     340/  5/  8 1017.7R
C TOWER          NOT AVBL
APALACHICOLA BUO NOT AVBL
PANAMA CITY BUOY NOT AVBL
MOBILE BUOY      2300          100/ 10/ 12 1018.0
ORANGE BCH AL BU 2240                        N/A           3/ 6
$$



USA.gov is the U.S. government's official web portal to all federal, state and local government web resources and services.